IGO3579 VOMM-OMDB

Flight info

Callsign IGO3579
Flight time N/A
Altitude 30000
Route GULA2A GULAM P574 PAROK Q899 ITURA M762 MIVEK P574 IMPED IMPE3C
Aircraft A20N/L-V/N

Departure

Time N/A
Airport Chennai International Airport (VOMM)

Arrival

Time 2026-04-24 11:01
Airport Dubai International Airport (OMDB)
Time Latitude Longitude Altitude Speed Heading
2026-04-24 09:29 12.98439 80.16569 0 ft 0 kts 160°
2026-04-24 09:45 12.98440 80.16569 0 ft 0 kts 160°
2026-04-24 09:45 12.98441 80.16569 0 ft 0 kts 160°
2026-04-24 09:48 12.98442 80.16568 0 ft 2 kts 160°
2026-04-24 09:48 12.98456 80.16563 0 ft 3 kts 160°
2026-04-24 09:48 12.98470 80.16558 0 ft 3 kts 160°
2026-04-24 09:49 12.98483 80.16553 0 ft 3 kts 160°
2026-04-24 09:49 12.98497 80.16548 0 ft 3 kts 169°
2026-04-24 09:49 12.98513 80.16549 0 ft 3 kts 205°
2026-04-24 09:49 12.98515 80.16550 0 ft 0 kts 211°
2026-04-24 09:51 12.98520 80.16553 0 ft 3 kts 224°
2026-04-24 09:51 12.98527 80.16566 0 ft 0 kts 257°
2026-04-24 10:01 12.98527 80.16565 0 ft 0 kts 257°
2026-04-24 10:01 12.98521 80.16551 0 ft 8 kts 243°
2026-04-24 10:01 12.98484 80.16477 0 ft 18 kts 246°
2026-04-24 10:02 12.98446 80.16368 0 ft 22 kts 250°
2026-04-24 10:02 12.98403 80.16248 0 ft 23 kts 249°
2026-04-24 10:02 12.98360 80.16133 0 ft 24 kts 249°
2026-04-24 10:02 12.98312 80.16005 0 ft 22 kts 247°
2026-04-24 10:03 12.98292 80.15896 0 ft 15 kts 284°
2026-04-24 10:03 12.98319 80.15805 0 ft 16 kts 286°
2026-04-24 10:03 12.98346 80.15706 0 ft 17 kts 286°
2026-04-24 10:03 12.98376 80.15600 0 ft 18 kts 286°
2026-04-24 10:04 12.98408 80.15485 0 ft 20 kts 290°
2026-04-24 10:04 12.98486 80.15473 0 ft 16 kts 68°
2026-04-24 10:04 12.98537 80.15611 0 ft 48 kts 70°
2026-04-24 10:04 12.98676 80.15990 0 ft 101 kts 69°
2026-04-24 10:05 12.98931 80.16666 0 ft 152 kts 69°
2026-04-24 10:05 12.99279 80.17590 0 ft 195 kts 69°
2026-04-24 10:05 12.99690 80.18691 0 ft 192 kts 69°
2026-04-24 10:05 13.00084 80.19747 0 ft 170 kts 69°
2026-04-24 10:06 13.00480 80.20782 0 ft 215 kts 62°
2026-04-24 10:06 13.02531 80.22506 0 ft 219 kts 15°
2026-04-24 10:06 13.03878 80.22638 0 ft 221 kts 351°
2026-04-24 10:07 13.05157 80.22205 0 ft 220 kts 327°
2026-04-24 10:07 13.06213 80.21300 0 ft 238 kts 310°
2026-04-24 10:07 13.07179 80.20175 0 ft 226 kts 313°
2026-04-24 10:07 13.08267 80.19273 0 ft 212 kts 329°
2026-04-24 10:08 13.09335 80.18528 0 ft 216 kts 319°
2026-04-24 10:08 13.10299 80.17631 0 ft 238 kts 313°
2026-04-24 10:08 13.11237 80.16582 0 ft 238 kts 310°
2026-04-24 10:08 13.12124 80.15495 0 ft 236 kts 308°
2026-04-24 10:09 13.12673 80.14786 0 ft 241 kts 307°
2026-04-24 10:09 13.13828 80.13219 0 ft 239 kts 306°
2026-04-24 10:09 13.14647 80.12064 0 ft 232 kts 305°
2026-04-24 10:09 13.15213 80.11251 0 ft 235 kts 304°
2026-04-24 10:10 13.16041 80.10046 0 ft 232 kts 304°
2026-04-24 10:10 13.17093 80.08427 0 ft 234 kts 299°
2026-04-24 10:10 13.17809 80.07111 0 ft 232 kts 297°
2026-04-24 10:10 13.18502 80.05782 0 ft 232 kts 297°
2026-04-24 10:11 13.19206 80.04412 0 ft 233 kts 297°
2026-04-24 10:11 13.19932 80.02983 0 ft 249 kts 297°
2026-04-24 10:11 13.20445 80.01965 0 ft 261 kts 296°
2026-04-24 10:11 13.21498 79.99856 0 ft 277 kts 296°
2026-04-24 10:12 13.22037 79.98772 0 ft 275 kts 296°
2026-04-24 10:12 13.23024 79.96785 0 ft 275 kts 296°
2026-04-24 10:12 13.23768 79.95287 0 ft 276 kts 296°
2026-04-24 10:12 13.24275 79.94266 0 ft 277 kts 296°
2026-04-24 10:13 13.25380 79.92041 0 ft 278 kts 296°
2026-04-24 10:13 13.26183 79.90422 0 ft 279 kts 296°
2026-04-24 10:13 13.26705 79.89368 0 ft 280 kts 296°
2026-04-24 10:13 13.27528 79.87708 0 ft 281 kts 296°
2026-04-24 10:14 13.28349 79.86051 0 ft 282 kts 296°
2026-04-24 10:14 13.29192 79.84347 0 ft 283 kts 296°
2026-04-24 10:14 13.30052 79.82609 0 ft 285 kts 296°
2026-04-24 10:14 13.30891 79.80913 0 ft 286 kts 296°
2026-04-24 10:15 13.31743 79.79190 0 ft 287 kts 296°
2026-04-24 10:15 13.32587 79.77480 0 ft 288 kts 296°
2026-04-24 10:15 13.33448 79.75737 0 ft 289 kts 296°
2026-04-24 10:15 13.34331 79.73949 0 ft 290 kts 296°
2026-04-24 10:16 13.35163 79.72260 0 ft 291 kts 296°
2026-04-24 10:16 13.36035 79.70492 0 ft 293 kts 296°
2026-04-24 10:16 13.36893 79.68752 0 ft 304 kts 296°
2026-04-24 10:16 13.37836 79.66836 0 ft 322 kts 296°
2026-04-24 10:17 13.38807 79.64859 0 ft 339 kts 296°
2026-04-24 10:17 13.39804 79.62832 0 ft 353 kts 296°
2026-04-24 10:17 13.40811 79.60780 0 ft 366 kts 296°
2026-04-24 10:17 13.41845 79.58673 0 ft 378 kts 296°
2026-04-24 10:18 13.42886 79.56552 0 ft 389 kts 296°
2026-04-24 10:18 13.44020 79.54240 0 ft 395 kts 296°
2026-04-24 10:18 13.45142 79.51954 0 ft 395 kts 296°
2026-04-24 10:18 13.46272 79.49651 0 ft 397 kts 296°
2026-04-24 10:19 13.47378 79.47396 0 ft 397 kts 296°
2026-04-24 10:19 13.48525 79.45057 0 ft 398 kts 296°
2026-04-24 10:19 13.49669 79.42723 0 ft 399 kts 296°
2026-04-24 10:19 13.50815 79.40384 0 ft 400 kts 296°
2026-04-24 10:20 13.51950 79.38067 0 ft 401 kts 296°
2026-04-24 10:20 13.53086 79.35749 0 ft 401 kts 296°
2026-04-24 10:20 13.54216 79.33440 0 ft 402 kts 296°
2026-04-24 10:20 13.55338 79.31148 0 ft 403 kts 296°
2026-04-24 10:21 13.56491 79.28793 0 ft 403 kts 296°
2026-04-24 10:21 13.57647 79.26428 0 ft 404 kts 296°
2026-04-24 10:21 13.58843 79.23983 0 ft 399 kts 296°
2026-04-24 10:21 13.59979 79.21659 0 ft 395 kts 296°
2026-04-24 10:22 13.61126 79.19312 0 ft 392 kts 296°
2026-04-24 10:22 13.62240 79.17033 0 ft 390 kts 296°
2026-04-24 10:22 13.63343 79.14774 0 ft 387 kts 296°
2026-04-24 10:22 13.64437 79.12534 0 ft 384 kts 296°
2026-04-24 10:23 13.65552 79.10249 0 ft 382 kts 296°
2026-04-24 10:23 13.66681 79.07935 0 ft 380 kts 296°
2026-04-24 10:23 13.67690 79.05865 0 ft 378 kts 296°
2026-04-24 10:23 13.68753 79.03685 0 ft 376 kts 296°
2026-04-24 10:24 13.69814 79.01510 0 ft 374 kts 296°
2026-04-24 10:24 13.70926 78.99228 0 ft 372 kts 296°
2026-04-24 10:24 13.71995 78.97032 0 ft 370 kts 296°
2026-04-24 10:24 13.73071 78.94822 0 ft 368 kts 296°
2026-04-24 10:25 13.74125 78.92657 0 ft 366 kts 296°
2026-04-24 10:25 13.75193 78.90462 0 ft 365 kts 296°
2026-04-24 10:25 13.76188 78.88417 0 ft 363 kts 296°
2026-04-24 10:25 13.77246 78.86242 0 ft 362 kts 296°
2026-04-24 10:26 13.78270 78.84136 0 ft 360 kts 296°
2026-04-24 10:26 13.79249 78.82122 0 ft 359 kts 296°
2026-04-24 10:26 13.80267 78.80027 0 ft 357 kts 296°
2026-04-24 10:26 13.81270 78.77962 0 ft 355 kts 296°
2026-04-24 10:27 13.82287 78.75867 0 ft 353 kts 296°
2026-04-24 10:27 13.83290 78.73802 0 ft 352 kts 296°
2026-04-24 10:27 13.84313 78.71694 0 ft 350 kts 296°
2026-04-24 10:27 13.85325 78.69607 0 ft 348 kts 296°
2026-04-24 10:28 13.86345 78.67505 0 ft 346 kts 296°
2026-04-24 10:28 13.87344 78.65444 0 ft 342 kts 296°
2026-04-24 10:28 13.88318 78.63436 0 ft 333 kts 296°
2026-04-24 10:28 13.89271 78.61467 0 ft 337 kts 296°
2026-04-24 10:29 13.90254 78.59441 0 ft 338 kts 296°
2026-04-24 10:29 13.91236 78.57412 0 ft 336 kts 296°
2026-04-24 10:29 13.92209 78.55403 0 ft 337 kts 296°
2026-04-24 10:29 13.93209 78.53339 0 ft 344 kts 296°
2026-04-24 10:30 13.94219 78.51252 0 ft 353 kts 296°
2026-04-24 10:30 13.95199 78.49226 0 ft 345 kts 296°
2026-04-24 10:30 13.96182 78.47195 0 ft 340 kts 296°
2026-04-24 10:30 13.97117 78.45262 0 ft 342 kts 296°
2026-04-24 10:31 13.98084 78.43261 0 ft 345 kts 296°
2026-04-24 10:31 13.99009 78.41347 0 ft 343 kts 296°
2026-04-24 10:31 13.99947 78.39408 0 ft 343 kts 296°
2026-04-24 10:31 14.00882 78.37472 0 ft 346 kts 296°
2026-04-24 10:32 14.01910 78.35344 0 ft 349 kts 296°
2026-04-24 10:32 14.02977 78.33134 0 ft 360 kts 296°
2026-04-24 10:32 14.04039 78.30933 0 ft 372 kts 296°
2026-04-24 10:32 14.05131 78.28670 0 ft 384 kts 296°
2026-04-24 10:33 14.06194 78.26466 0 ft 396 kts 296°
2026-04-24 10:33 14.07323 78.24125 0 ft 407 kts 296°
2026-04-24 10:33 14.08517 78.21649 0 ft 419 kts 296°
2026-04-24 10:33 14.09726 78.19143 0 ft 430 kts 296°
2026-04-24 10:34 14.10911 78.16686 0 ft 440 kts 296°
2026-04-24 10:34 14.12124 78.14169 0 ft 450 kts 296°
2026-04-24 10:34 14.13399 78.11521 0 ft 460 kts 296°
2026-04-24 10:34 23.39750 58.12222 0 ft 455 kts 309°
2026-04-24 10:35 23.40950 58.10796 0 ft 345 kts 314°
2026-04-24 10:35 23.42912 58.08378 0 ft 363 kts 308°
2026-04-24 10:36 23.43864 58.07064 0 ft 367 kts 307°
2026-04-24 10:36 23.45266 58.05087 0 ft 355 kts 307°
2026-04-24 10:36 23.46600 58.03201 0 ft 326 kts 307°
2026-04-24 10:36 23.47873 58.01408 0 ft 307 kts 307°
2026-04-24 10:37 23.49029 57.99787 0 ft 291 kts 307°
2026-04-24 10:37 23.50107 57.98279 0 ft 274 kts 307°
2026-04-24 10:37 23.51105 57.96894 0 ft 258 kts 307°
2026-04-24 10:37 23.52111 57.95503 0 ft 255 kts 308°
2026-04-24 10:38 23.53163 57.94053 0 ft 265 kts 308°
2026-04-24 10:38 23.54224 57.92598 0 ft 267 kts 308°
2026-04-24 10:38 23.55289 57.91141 0 ft 258 kts 308°
2026-04-24 10:38 23.56281 57.89789 0 ft 241 kts 308°
2026-04-24 10:39 23.57241 57.88481 0 ft 265 kts 308°
2026-04-24 10:39 23.58298 57.87039 0 ft 286 kts 308°
2026-04-24 10:39 23.59423 57.85507 0 ft 307 kts 308°
2026-04-24 10:39 23.60677 57.83798 0 ft 328 kts 308°
2026-04-24 10:40 23.61884 57.82155 0 ft 334 kts 308°
2026-04-24 10:40 23.63220 57.80336 0 ft 341 kts 308°
2026-04-24 10:40 23.64598 57.78459 0 ft 347 kts 308°
2026-04-24 10:40 23.65937 57.76635 0 ft 353 kts 308°
2026-04-24 10:41 23.67366 57.74689 0 ft 359 kts 308°
2026-04-24 10:41 23.68783 57.72759 0 ft 364 kts 308°
2026-04-24 10:41 23.70237 57.70778 0 ft 373 kts 308°
2026-04-24 10:41 23.71734 57.68737 0 ft 385 kts 308°
2026-04-24 10:42 23.73241 57.66681 0 ft 389 kts 308°
2026-04-24 10:42 23.74768 57.64599 0 ft 383 kts 308°
2026-04-24 10:42 23.76319 57.62483 0 ft 384 kts 308°
2026-04-24 10:42 23.77885 57.60345 0 ft 384 kts 308°
2026-04-24 10:43 23.79334 57.58366 0 ft 383 kts 308°
2026-04-24 10:43 23.80748 57.56434 0 ft 382 kts 308°
2026-04-24 10:43 23.82269 57.54356 0 ft 384 kts 308°
2026-04-24 10:43 23.83805 57.52255 0 ft 383 kts 308°
2026-04-24 10:44 23.85300 57.50211 0 ft 382 kts 308°
2026-04-24 10:44 23.86847 57.48093 0 ft 383 kts 308°
2026-04-24 10:44 23.88341 57.46048 0 ft 384 kts 308°
2026-04-24 10:44 23.89837 57.43999 0 ft 383 kts 308°
2026-04-24 10:45 25.10194 55.63556 0 ft 250 kts 302°
2026-04-24 10:45 25.09428 55.64500 0 ft 284 kts 128°
2026-04-24 10:46 25.08303 55.65803 0 ft 268 kts 145°
2026-04-24 10:46 25.06891 55.66617 0 ft 252 kts 166°
2026-04-24 10:46 25.05419 55.66811 0 ft 236 kts 188°
2026-04-24 10:46 25.04079 55.66407 0 ft 219 kts 211°
2026-04-24 10:47 25.03017 55.65467 0 ft 212 kts 234°
2026-04-24 10:47 25.02431 55.64264 0 ft 222 kts 256°
2026-04-24 10:47 25.02310 55.62830 0 ft 225 kts 279°
2026-04-24 10:47 25.02700 55.61484 0 ft 218 kts 302°
2026-04-24 10:48 25.03522 55.60414 0 ft 215 kts 324°
2026-04-24 10:48 25.04636 55.59778 0 ft 220 kts 344°
2026-04-24 10:48 25.05850 55.59427 0 ft 184 kts 346°
2026-04-24 10:48 25.06831 55.59168 0 ft 164 kts 346°
2026-04-24 10:49 25.07847 55.58899 0 ft 174 kts 346°
2026-04-24 10:49 25.08780 55.58652 0 ft 177 kts 346°
2026-04-24 10:49 25.09709 55.58406 0 ft 167 kts 346°
2026-04-24 10:49 25.10611 55.58246 0 ft 170 kts 356°
2026-04-24 10:50 25.11533 55.58190 0 ft 165 kts 357°
2026-04-24 10:50 25.12402 55.58149 0 ft 139 kts 357°
2026-04-24 10:50 25.13252 55.57973 0 ft 166 kts 329°
2026-04-24 10:50 25.13996 55.57248 0 ft 180 kts 302°
2026-04-24 10:51 25.14426 55.56238 0 ft 186 kts 290°
2026-04-24 10:51 25.14859 55.55185 0 ft 180 kts 298°
2026-04-24 10:51 25.15306 55.54359 0 ft 156 kts 301°
2026-04-24 10:51 25.15789 55.53504 0 ft 164 kts 301°
2026-04-24 10:52 25.16280 55.52631 0 ft 159 kts 301°
2026-04-24 10:52 25.16810 55.51683 0 ft 161 kts 301°
2026-04-24 10:52 25.17298 55.50809 0 ft 159 kts 300°
2026-04-24 10:52 25.17808 55.49894 0 ft 160 kts 301°
2026-04-24 10:53 25.18292 55.49026 0 ft 157 kts 301°
2026-04-24 10:53 25.18759 55.48185 0 ft 158 kts 300°
2026-04-24 10:53 25.19256 55.47291 0 ft 156 kts 301°
2026-04-24 10:53 25.19708 55.46479 0 ft 156 kts 301°
2026-04-24 10:54 25.20160 55.45667 0 ft 156 kts 300°
2026-04-24 10:54 25.20587 55.44900 0 ft 154 kts 300°
2026-04-24 10:54 25.21046 55.44071 0 ft 156 kts 301°
2026-04-24 10:54 25.21471 55.43306 0 ft 154 kts 301°
2026-04-24 10:55 25.21878 55.42573 0 ft 155 kts 301°
2026-04-24 10:55 25.22278 55.41854 0 ft 155 kts 301°
2026-04-24 10:55 25.22643 55.41196 0 ft 154 kts 301°
2026-04-24 10:55 25.23023 55.40523 0 ft 154 kts 301°
2026-04-24 10:56 25.23396 55.39870 0 ft 160 kts 302°
2026-04-24 10:56 25.23757 55.39235 0 ft 142 kts 301°
2026-04-24 10:56 25.24097 55.38624 0 ft 129 kts 299°
2026-04-24 10:56 12.98439 80.16569 0 ft 0 kts 160°
2026-04-24 11:00 25.10194 55.63556 0 ft 249 kts 302°
2026-04-24 11:01 25.09937 55.63843 0 ft 293 kts 135°
2026-04-24 11:01 25.24605 55.37660 0 ft 0 kts 301°
2026-04-24 11:02 25.24608 55.37655 0 ft 2 kts 295°
2026-04-24 11:03 25.24610 55.37651 0 ft 0 kts 295°
2026-04-24 11:03 25.24610 55.37650 0 ft 1 kts 292°
2026-04-24 11:03 25.24610 55.37649 0 ft 0 kts 288°
2026-04-24 11:04 25.24614 55.37495 0 ft 59 kts 270°
2026-04-24 11:04 25.24642 55.37225 0 ft 36 kts 291°
2026-04-24 11:04 25.24672 55.37169 0 ft 2 kts 303°
2026-04-24 11:08 25.24673 55.37168 0 ft 1 kts 304°
2026-04-24 11:08 25.24675 55.37164 0 ft 2 kts 304°
2026-04-24 11:09 25.24685 55.37147 0 ft 5 kts 304°
2026-04-24 11:09 25.24703 55.37119 0 ft 7 kts 305°
2026-04-24 11:09 25.24730 55.37077 0 ft 10 kts 306°
2026-04-24 11:09 25.24767 55.37022 0 ft 13 kts 306°
2026-04-24 11:10 25.24799 55.36962 0 ft 13 kts 289°
2026-04-24 11:10 25.24822 55.36887 0 ft 16 kts 289°
2026-04-24 11:10 25.24849 55.36802 0 ft 18 kts 289°
2026-04-24 11:10 25.24874 55.36716 0 ft 16 kts 287°
2026-04-24 11:11 25.24902 55.36643 0 ft 14 kts 299°
2026-04-24 11:11 25.24932 55.36587 0 ft 13 kts 301°
2026-04-24 11:11 25.24961 55.36533 0 ft 12 kts 300°
2026-04-24 11:11 25.24988 55.36481 0 ft 11 kts 304°
2026-04-24 11:12 25.25014 55.36437 0 ft 10 kts 302°
2026-04-24 11:12 25.25039 55.36393 0 ft 10 kts 301°
2026-04-24 11:12 25.25062 55.36351 0 ft 9 kts 300°
2026-04-24 11:12 25.25083 55.36311 0 ft 9 kts 299°
2026-04-24 11:13 25.25102 55.36272 0 ft 8 kts 298°
2026-04-24 11:13 25.25121 55.36233 0 ft 8 kts 297°
2026-04-24 11:13 25.25138 55.36203 0 ft 6 kts 302°
2026-04-24 11:13 25.25154 55.36175 0 ft 6 kts 301°
2026-04-24 11:14 25.25168 55.36151 0 ft 5 kts 304°
2026-04-24 11:14 25.25181 55.36130 0 ft 5 kts 306°
2026-04-24 11:14 25.25197 55.36105 0 ft 6 kts 304°
2026-04-24 11:14 25.25216 55.36074 0 ft 9 kts 302°
2026-04-24 11:15 25.25240 55.36031 0 ft 11 kts 301°
2026-04-24 11:15 25.25270 55.35973 0 ft 13 kts 299°
2026-04-24 11:15 25.25307 55.35906 0 ft 14 kts 303°
2026-04-24 11:15 25.25348 55.35833 0 ft 16 kts 301°
2026-04-24 11:16 25.25392 55.35750 0 ft 18 kts 299°
2026-04-24 11:16 25.25441 55.35659 0 ft 19 kts 301°
2026-04-24 11:16 25.25465 55.35555 0 ft 19 kts 275°
2026-04-24 11:16 25.25474 55.35455 0 ft 18 kts 282°
2026-04-24 11:17 25.25507 55.35362 0 ft 18 kts 299°
2026-04-24 11:17 25.25550 55.35278 0 ft 19 kts 298°
2026-04-24 11:17 25.25600 55.35191 0 ft 19 kts 302°
2026-04-24 11:17 25.25649 55.35099 0 ft 20 kts 300°
2026-04-24 11:18 25.25695 55.35010 0 ft 16 kts 299°
2026-04-24 11:18 25.25734 55.34942 0 ft 12 kts 303°
2026-04-24 11:18 25.25765 55.34890 0 ft 10 kts 302°
2026-04-24 11:18 25.25787 55.34851 0 ft 7 kts 302°
2026-04-24 11:19 25.25802 55.34824 0 ft 4 kts 301°
2026-04-24 11:19 25.25808 55.34811 0 ft 1 kts 291°
2026-04-24 11:19 25.25809 55.34809 0 ft 0 kts 288°
2026-04-24 11:19 25.25809 55.34807 0 ft 0 kts 288°
2026-04-24 11:20 25.25812 55.34797 0 ft 6 kts 287°
2026-04-24 11:20 25.25826 55.34742 0 ft 14 kts 277°
2026-04-24 11:20 25.25793 55.34704 0 ft 4 kts 202°
2026-04-24 11:20 25.25791 55.34703 0 ft 0 kts 206°
2026-04-24 11:21 25.25790 55.34703 0 ft 0 kts 206°
2026-04-24 11:21 25.25784 55.34701 0 ft 2 kts 197°